BCS3197 ESSA-EDDP

Flight info

Callsign BCS3197
Flight time 1h 35m
Altitude 36000
Route NOSLI N850 ABAMA DCT SALLO DCT SUVAL/N0448F350 M736 MAG/N0454F300 Z20 KENIG/N0426F230 T959 KOJEC KOJEC1R
Aircraft A306/H-SDE1FGHIRWXYZ/HB1

Departure

Time 2026-05-06 17:38
Airport Stockholm-Arlanda Airport (ESSA)

Arrival

Time 2026-05-06 19:14
Airport Leipzig/Halle Airport (EDDP)
Time Latitude Longitude Altitude Speed Heading
2026-05-06 16:52 59.63881 17.93035 112 ft 0 kts 207°
2026-05-06 17:21 59.63898 17.93052 113 ft 4 kts 207°
2026-05-06 17:21 59.63917 17.93072 114 ft 4 kts 209°
2026-05-06 17:21 59.63936 17.93103 112 ft 4 kts 252°
2026-05-06 17:21 59.63936 17.93151 112 ft 4 kts 295°
2026-05-06 17:22 59.63924 17.93196 113 ft 4 kts 297°
2026-05-06 17:22 59.63920 17.93211 113 ft 1 kts 297°
2026-05-06 17:26 59.63927 17.93186 114 ft 7 kts 297°
2026-05-06 17:26 59.63968 17.93047 114 ft 14 kts 314°
2026-05-06 17:26 59.64055 17.92997 115 ft 12 kts 329°
2026-05-06 17:27 59.64104 17.92853 114 ft 16 kts 298°
2026-05-06 17:27 59.64165 17.92625 115 ft 21 kts 298°
2026-05-06 17:27 59.64228 17.92382 120 ft 19 kts 297°
2026-05-06 17:27 59.64287 17.92158 118 ft 19 kts 297°
2026-05-06 17:28 59.64358 17.91936 115 ft 19 kts 329°
2026-05-06 17:28 59.64484 17.91958 113 ft 19 kts 12°
2026-05-06 17:28 59.64642 17.92016 115 ft 26 kts
2026-05-06 17:28 59.64825 17.92078 110 ft 27 kts 10°
2026-05-06 17:29 59.65007 17.92146 111 ft 26 kts 11°
2026-05-06 17:29 59.65185 17.92211 110 ft 25 kts 11°
2026-05-06 17:29 59.65360 17.92275 109 ft 26 kts 11°
2026-05-06 17:29 59.65531 17.92336 108 ft 25 kts 10°
2026-05-06 17:30 59.65701 17.92398 111 ft 25 kts 10°
2026-05-06 17:30 59.65883 17.92465 112 ft 27 kts 11°
2026-05-06 17:30 59.66058 17.92527 115 ft 25 kts 11°
2026-05-06 17:30 59.66219 17.92586 118 ft 22 kts 10°
2026-05-06 17:31 59.66362 17.92636 123 ft 19 kts 10°
2026-05-06 17:31 59.66483 17.92635 126 ft 16 kts 347°
2026-05-06 17:31 59.66585 17.92564 125 ft 15 kts 329°
2026-05-06 17:31 59.66620 17.92413 130 ft 9 kts 267°
2026-05-06 17:32 59.66583 17.92358 129 ft 6 kts 190°
2026-05-06 17:32 59.66581 17.92357 129 ft 0 kts 190°
2026-05-06 17:37 59.66580 17.92357 129 ft 1 kts 190°
2026-05-06 17:37 59.66565 17.92351 128 ft 9 kts 190°
2026-05-06 17:37 59.66334 17.92267 121 ft 70 kts 190°
2026-05-06 17:37 59.65608 17.92007 112 ft 138 kts 189°
2026-05-06 17:38 59.64562 17.91608 579 ft 162 kts 191°
2026-05-06 17:38 59.63452 17.90898 1450 ft 175 kts 198°
2026-05-06 17:38 59.62244 17.89910 2116 ft 196 kts 203°
2026-05-06 17:38 59.60986 17.88707 2978 ft 205 kts 204°
2026-05-06 17:39 59.59666 17.87527 3870 ft 211 kts 203°
2026-05-06 17:39 59.58278 17.86379 4614 ft 221 kts 203°
2026-05-06 17:39 59.56827 17.85240 5337 ft 228 kts 202°
2026-05-06 17:39 59.55303 17.84082 6075 ft 242 kts 202°
2026-05-06 17:40 59.53663 17.82840 6792 ft 262 kts 204°
2026-05-06 17:40 59.52065 17.81075 7518 ft 270 kts 216°
2026-05-06 17:40 59.50711 17.78508 8256 ft 270 kts 237°
2026-05-06 17:40 59.49939 17.75190 9012 ft 267 kts 252°
2026-05-06 17:41 59.49037 17.71884 9778 ft 286 kts 230°
2026-05-06 17:41 59.47340 17.69592 10368 ft 304 kts 209°
2026-05-06 17:41 59.45410 17.67810 10911 ft 317 kts 208°
2026-05-06 17:41 59.43389 17.65864 11465 ft 327 kts 210°
2026-05-06 17:42 59.41365 17.63773 12012 ft 330 kts 211°
2026-05-06 17:42 59.39342 17.61596 12572 ft 331 kts 211°
2026-05-06 17:42 59.37352 17.59405 13130 ft 333 kts 212°
2026-05-06 17:42 59.35328 17.57151 13708 ft 335 kts 212°
2026-05-06 17:43 59.33984 17.55647 14057 ft 336 kts 212°
2026-05-06 17:43 59.31912 17.53320 14383 ft 350 kts 212°
2026-05-06 17:43 59.29053 17.50106 15061 ft 362 kts 212°
2026-05-06 17:43 59.27565 17.48435 15501 ft 365 kts 212°
2026-05-06 17:44 59.25369 17.45972 16128 ft 370 kts 212°
2026-05-06 17:44 59.23122 17.43454 16868 ft 372 kts 212°
2026-05-06 17:44 59.20860 17.40925 17625 ft 374 kts 212°
2026-05-06 17:44 59.18598 17.38398 18348 ft 377 kts 213°
2026-05-06 17:45 59.16338 17.35878 18964 ft 379 kts 213°
2026-05-06 17:45 59.14044 17.33322 19587 ft 380 kts 213°
2026-05-06 17:45 59.11735 17.30754 20195 ft 382 kts 213°
2026-05-06 17:45 59.09421 17.28185 20794 ft 383 kts 213°
2026-05-06 17:46 59.06740 17.24873 21482 ft 383 kts 219°
2026-05-06 17:46 59.04620 17.21733 22059 ft 383 kts 222°
2026-05-06 17:46 59.02548 17.18438 22603 ft 384 kts 223°
2026-05-06 17:46 59.00496 17.15071 23068 ft 388 kts 224°
2026-05-06 17:47 58.98453 17.11696 23598 ft 390 kts 224°
2026-05-06 17:47 58.96382 17.08294 24014 ft 391 kts 223°
2026-05-06 17:47 58.94282 17.04877 24441 ft 393 kts 223°
2026-05-06 17:47 58.92179 17.01485 24859 ft 394 kts 223°
2026-05-06 17:48 58.90063 16.98091 25266 ft 395 kts 223°
2026-05-06 17:48 58.87937 16.94695 25662 ft 397 kts 222°
2026-05-06 17:48 58.85802 16.91295 26048 ft 398 kts 222°
2026-05-06 17:48 58.83688 16.87934 26422 ft 399 kts 222°
2026-05-06 17:49 58.81531 16.84507 26783 ft 400 kts 222°
2026-05-06 17:49 58.79375 16.81089 27129 ft 401 kts 221°
2026-05-06 17:49 58.77210 16.77660 27374 ft 404 kts 221°
2026-05-06 17:49 58.75024 16.74203 27616 ft 408 kts 221°
2026-05-06 17:50 58.72827 16.70733 27939 ft 409 kts 221°
2026-05-06 17:50 58.70648 16.67299 28254 ft 409 kts 221°
2026-05-06 17:50 58.68447 16.63838 28630 ft 409 kts 221°
2026-05-06 17:50 58.66221 16.60342 29121 ft 406 kts 220°
2026-05-06 17:51 58.64039 16.56922 29623 ft 403 kts 220°
2026-05-06 17:51 58.61895 16.53565 30112 ft 401 kts 220°
2026-05-06 17:51 58.59739 16.50195 30485 ft 399 kts 220°
2026-05-06 17:51 58.57583 16.46830 30904 ft 397 kts 220°
2026-05-06 17:52 58.55450 16.43509 31373 ft 393 kts 220°
2026-05-06 17:52 58.53351 16.40242 31644 ft 394 kts 220°
2026-05-06 17:52 58.51205 16.36909 31838 ft 397 kts 220°
2026-05-06 17:52 58.49061 16.33583 32172 ft 397 kts 220°
2026-05-06 17:53 58.46934 16.30289 32542 ft 396 kts 220°
2026-05-06 17:53 58.44786 16.26969 32896 ft 395 kts 220°
2026-05-06 17:53 58.42650 16.23674 33246 ft 394 kts 220°
2026-05-06 17:53 58.40512 16.20382 33599 ft 393 kts 220°
2026-05-06 17:54 58.38386 16.17113 33973 ft 392 kts 220°
2026-05-06 17:54 58.36283 16.13886 34247 ft 392 kts 220°
2026-05-06 17:54 58.34154 16.10621 34480 ft 393 kts 220°
2026-05-06 17:54 58.32015 16.07346 34692 ft 395 kts 220°
2026-05-06 17:55 58.29866 16.04061 34857 ft 397 kts 220°
2026-05-06 17:55 58.27693 16.00746 34919 ft 403 kts 220°
2026-05-06 17:55 58.25501 15.97407 35136 ft 404 kts 220°
2026-05-06 17:55 58.23303 15.94066 35425 ft 404 kts 220°
2026-05-06 17:56 58.21131 15.90768 35645 ft 405 kts 220°
2026-05-06 17:56 58.18922 15.87421 35869 ft 406 kts 220°
2026-05-06 17:56 58.14542 15.80801 35971 ft 394 kts 220°
2026-05-06 17:57 58.10291 15.74398 35976 ft 387 kts 220°
2026-05-06 17:57 58.06098 15.68095 35954 ft 389 kts 220°
2026-05-06 17:58 58.01784 15.61626 35975 ft 400 kts 220°
2026-05-06 17:58 57.97117 15.55934 35972 ft 405 kts 208°
2026-05-06 17:59 57.91937 15.51628 35977 ft 406 kts 205°
2026-05-06 17:59 57.86718 15.47639 35969 ft 406 kts 205°
2026-05-06 18:00 57.81462 15.43663 35968 ft 406 kts 205°
2026-05-06 18:00 57.76251 15.39688 35967 ft 406 kts 205°
2026-05-06 18:01 57.71001 15.35674 35963 ft 406 kts 205°
2026-05-06 18:01 57.65773 15.31686 35964 ft 406 kts 205°
2026-05-06 18:02 57.60560 15.27723 35971 ft 406 kts 205°
2026-05-06 18:02 57.55311 15.23744 35946 ft 406 kts 205°
2026-05-06 18:03 57.50064 15.19779 35962 ft 407 kts 205°
2026-05-06 18:03 57.44838 15.15843 35972 ft 407 kts 205°
2026-05-06 18:04 57.40454 15.12551 35963 ft 407 kts 205°
2026-05-06 18:04 57.35209 15.08625 35960 ft 407 kts 205°
2026-05-06 18:05 57.29948 15.04699 35965 ft 407 kts 205°
2026-05-06 18:05 57.23826 15.00140 35970 ft 409 kts 205°
2026-05-06 18:06 57.19397 14.96855 35960 ft 409 kts 205°
2026-05-06 18:06 57.14138 14.92969 35961 ft 409 kts 205°
2026-05-06 18:07 57.08844 14.89066 35965 ft 409 kts 205°
2026-05-06 18:07 57.03554 14.85177 35958 ft 409 kts 204°
2026-05-06 18:08 56.98288 14.81318 35960 ft 409 kts 204°
2026-05-06 18:08 56.93000 14.77455 35938 ft 409 kts 204°
2026-05-06 18:09 56.87711 14.73603 35939 ft 409 kts 204°
2026-05-06 18:09 56.82444 14.69801 35942 ft 409 kts 204°
2026-05-06 18:10 56.77130 14.66019 35940 ft 409 kts 204°
2026-05-06 18:10 56.71812 14.62247 35950 ft 409 kts 203°
2026-05-06 18:11 56.66526 14.58503 35956 ft 410 kts 203°
2026-05-06 18:11 56.61209 14.54743 35963 ft 410 kts 203°
2026-05-06 18:12 56.55884 14.50990 35966 ft 410 kts 203°
2026-05-06 18:12 56.50604 14.47280 35963 ft 410 kts 203°
2026-05-06 18:13 56.45264 14.43537 35967 ft 412 kts 203°
2026-05-06 18:13 56.39913 14.39798 35966 ft 412 kts 203°
2026-05-06 18:14 56.34583 14.36086 35966 ft 412 kts 203°
2026-05-06 18:14 56.29229 14.32369 35972 ft 412 kts 203°
2026-05-06 18:15 56.23861 14.28653 35970 ft 413 kts 203°
2026-05-06 18:15 56.18526 14.24970 35972 ft 414 kts 203°
2026-05-06 18:16 56.13148 14.21268 35970 ft 414 kts 203°
2026-05-06 18:16 56.07756 14.17570 35969 ft 414 kts 203°
2026-05-06 18:17 56.02405 14.13910 35950 ft 414 kts 202°
2026-05-06 18:17 55.97013 14.10232 35967 ft 414 kts 202°
2026-05-06 18:18 55.91610 14.06558 35966 ft 415 kts 202°
2026-05-06 18:18 55.86245 14.02921 35974 ft 415 kts 202°
2026-05-06 18:19 55.80839 13.99267 35975 ft 415 kts 202°
2026-05-06 18:19 55.75464 13.95646 35973 ft 415 kts 202°
2026-05-06 18:20 55.70056 13.92014 35975 ft 415 kts 202°
2026-05-06 18:20 55.64648 13.88391 35974 ft 415 kts 202°
2026-05-06 18:21 55.59239 13.84779 35969 ft 415 kts 202°
2026-05-06 18:21 55.53859 13.81195 35968 ft 415 kts 202°
2026-05-06 18:22 55.48446 13.77601 35966 ft 416 kts 202°
2026-05-06 18:22 55.43021 13.74009 35966 ft 416 kts 202°
2026-05-06 18:23 55.37635 13.70454 35965 ft 416 kts 202°
2026-05-06 18:23 55.32209 13.66883 35962 ft 416 kts 202°
2026-05-06 18:24 55.26796 13.63330 35839 ft 417 kts 202°
2026-05-06 18:24 55.24100 13.61565 35679 ft 416 kts 202°
2026-05-06 18:24 55.21414 13.59808 35509 ft 416 kts 202°
2026-05-06 18:25 55.18738 13.58062 35333 ft 416 kts 202°
2026-05-06 18:25 55.16069 13.56321 35171 ft 416 kts 202°
2026-05-06 18:25 55.13350 13.54551 35016 ft 416 kts 202°
2026-05-06 18:25 55.10640 13.52789 34960 ft 416 kts 202°
2026-05-06 18:26 55.05249 13.49294 34942 ft 402 kts 202°
2026-05-06 18:26 55.02666 13.47626 34936 ft 391 kts 202°
2026-05-06 18:26 55.00126 13.45987 34947 ft 388 kts 202°
2026-05-06 18:27 54.95060 13.42715 34956 ft 388 kts 202°
2026-05-06 18:27 54.90026 13.39473 34949 ft 388 kts 202°
2026-05-06 18:28 54.84962 13.36222 34946 ft 388 kts 202°
2026-05-06 18:28 54.79899 13.32981 34949 ft 388 kts 202°
2026-05-06 18:29 54.74823 13.29742 34951 ft 388 kts 202°
2026-05-06 18:29 54.69784 13.26535 34937 ft 388 kts 202°
2026-05-06 18:30 54.64710 13.23313 34940 ft 388 kts 202°
2026-05-06 18:30 54.59636 13.20100 34934 ft 388 kts 202°
2026-05-06 18:31 54.54589 13.16913 34936 ft 388 kts 202°
2026-05-06 18:31 54.49511 13.13715 34927 ft 387 kts 202°
2026-05-06 18:32 54.44441 13.10531 34924 ft 387 kts 202°
2026-05-06 18:32 54.39383 13.07362 34923 ft 387 kts 202°
2026-05-06 18:33 54.34352 13.04218 34916 ft 387 kts 202°
2026-05-06 18:33 54.29287 13.01061 34917 ft 387 kts 202°
2026-05-06 18:34 54.24219 12.97911 34911 ft 386 kts 202°
2026-05-06 18:34 54.19191 12.94793 34919 ft 386 kts 202°
2026-05-06 18:35 54.14128 12.91663 34904 ft 386 kts 202°
2026-05-06 18:35 54.09065 12.88540 34901 ft 386 kts 202°
2026-05-06 18:36 54.04005 12.85428 34900 ft 390 kts 201°
2026-05-06 18:36 53.98819 12.82242 34904 ft 398 kts 201°
2026-05-06 18:37 53.94494 12.79596 34898 ft 397 kts 201°
2026-05-06 18:37 53.88446 12.75906 34896 ft 397 kts 201°
2026-05-06 18:38 53.83235 12.72734 34894 ft 397 kts 201°
2026-05-06 18:38 53.78058 12.69591 34897 ft 398 kts 201°
2026-05-06 18:39 53.72830 12.66426 34891 ft 398 kts 201°
2026-05-06 18:40 53.65021 12.61713 34360 ft 402 kts 201°
2026-05-06 18:40 53.62366 12.60114 33630 ft 404 kts 201°
2026-05-06 18:40 53.59710 12.58518 32824 ft 404 kts 201°
2026-05-06 18:40 53.57061 12.56928 32023 ft 403 kts 201°
2026-05-06 18:41 53.54454 12.55365 31265 ft 402 kts 201°
2026-05-06 18:41 53.51818 12.53788 30523 ft 401 kts 201°
2026-05-06 18:41 53.49190 12.52218 29760 ft 400 kts 201°
2026-05-06 18:41 53.46570 12.50655 28934 ft 398 kts 201°
2026-05-06 18:42 53.43968 12.49104 28183 ft 395 kts 201°
2026-05-06 18:42 53.41385 12.47565 27447 ft 391 kts 201°
2026-05-06 18:42 53.38850 12.46058 26735 ft 388 kts 201°
2026-05-06 18:42 53.36308 12.44548 26038 ft 385 kts 201°
2026-05-06 18:43 53.33786 12.43053 25344 ft 382 kts 201°
2026-05-06 18:43 53.31278 12.41566 24685 ft 380 kts 201°
2026-05-06 18:43 53.28794 12.40095 24138 ft 379 kts 201°
2026-05-06 18:43 53.26309 12.38626 23835 ft 378 kts 201°
2026-05-06 18:44 53.23830 12.37161 23612 ft 379 kts 201°
2026-05-06 18:44 53.21361 12.35704 23441 ft 379 kts 201°
2026-05-06 18:44 53.18872 12.34237 23238 ft 379 kts 201°
2026-05-06 18:44 53.16376 12.32767 22988 ft 380 kts 201°
2026-05-06 18:45 53.13872 12.31297 22736 ft 380 kts 201°
2026-05-06 18:45 53.11367 12.29827 22489 ft 379 kts 201°
2026-05-06 18:45 53.08914 12.28391 22228 ft 378 kts 202°
2026-05-06 18:45 53.07240 12.27412 22065 ft 376 kts 202°
2026-05-06 18:46 53.03978 12.25506 21754 ft 374 kts 202°
2026-05-06 18:46 53.01527 12.24074 21506 ft 372 kts 202°
2026-05-06 18:46 52.99086 12.22650 21281 ft 371 kts 201°
2026-05-06 18:46 52.96640 12.21225 21035 ft 370 kts 201°
2026-05-06 18:47 52.94219 12.19817 20806 ft 369 kts 201°
2026-05-06 18:47 52.91795 12.18408 20570 ft 367 kts 201°
2026-05-06 18:47 52.89389 12.17012 20334 ft 366 kts 201°
2026-05-06 18:47 52.87008 12.15631 20114 ft 365 kts 201°
2026-05-06 18:48 52.84607 12.14241 19886 ft 364 kts 201°
2026-05-06 18:48 52.82243 12.12873 19659 ft 363 kts 201°
2026-05-06 18:48 52.79863 12.11498 19435 ft 362 kts 201°
2026-05-06 18:48 52.77488 12.10127 19215 ft 361 kts 201°
2026-05-06 18:49 52.75115 12.08759 18993 ft 359 kts 201°
2026-05-06 18:49 52.72749 12.07398 18775 ft 358 kts 201°
2026-05-06 18:49 52.70397 12.06045 18564 ft 357 kts 201°
2026-05-06 18:49 52.68052 12.04697 18339 ft 356 kts 201°
2026-05-06 18:50 52.65712 12.03355 18128 ft 355 kts 201°
2026-05-06 18:50 52.63408 12.02035 17872 ft 354 kts 201°
2026-05-06 18:50 52.61079 12.00701 17628 ft 354 kts 201°
2026-05-06 18:50 52.58751 11.99370 17390 ft 353 kts 201°
2026-05-06 18:51 52.56426 11.98043 17140 ft 352 kts 201°
2026-05-06 18:51 52.54114 11.96723 16903 ft 351 kts 201°
2026-05-06 18:51 52.51810 11.95411 16666 ft 350 kts 201°
2026-05-06 18:51 52.49541 11.94119 16424 ft 349 kts 201°
2026-05-06 18:52 52.47250 11.92816 16203 ft 348 kts 201°
2026-05-06 18:52 52.44964 11.91518 15964 ft 347 kts 201°
2026-05-06 18:52 52.42686 11.90226 15735 ft 346 kts 201°
2026-05-06 18:52 52.40416 11.88939 15501 ft 345 kts 201°
2026-05-06 18:53 52.38143 11.87651 15284 ft 344 kts 201°
2026-05-06 18:53 52.35898 11.86381 15054 ft 344 kts 201°
2026-05-06 18:53 52.33641 11.85106 14880 ft 343 kts 201°
2026-05-06 18:53 52.31379 11.83830 14700 ft 342 kts 201°
2026-05-06 18:54 52.29129 11.82562 14536 ft 342 kts 201°
2026-05-06 18:54 52.26879 11.81294 14354 ft 341 kts 201°
2026-05-06 18:54 52.25391 11.80457 14249 ft 341 kts 201°
2026-05-06 18:54 52.22412 11.78783 14017 ft 340 kts 200°
2026-05-06 18:55 52.20922 11.77947 13908 ft 339 kts 201°
2026-05-06 18:55 52.18692 11.76696 13742 ft 339 kts 200°
2026-05-06 18:55 52.16469 11.75450 13559 ft 338 kts 200°
2026-05-06 18:55 52.14242 11.74203 13368 ft 338 kts 200°
2026-05-06 18:56 52.12015 11.72958 13183 ft 338 kts 200°
2026-05-06 18:56 52.09787 11.71714 12992 ft 337 kts 200°
2026-05-06 18:56 52.07598 11.70493 12839 ft 336 kts 200°
2026-05-06 18:56 52.05385 11.69260 12808 ft 336 kts 200°
2026-05-06 18:57 52.03169 11.68026 12806 ft 336 kts 200°
2026-05-06 18:57 52.00958 11.66796 12804 ft 335 kts 200°
2026-05-06 18:57 51.98738 11.65563 12803 ft 335 kts 200°
2026-05-06 18:57 51.96528 11.64336 12802 ft 335 kts 200°
2026-05-06 18:58 51.94344 11.63125 12800 ft 335 kts 200°
2026-05-06 18:58 51.92134 11.61900 12802 ft 336 kts 200°
2026-05-06 18:58 51.89921 11.60676 12802 ft 336 kts 200°
2026-05-06 18:58 51.87702 11.59450 12801 ft 336 kts 200°
2026-05-06 18:59 51.85499 11.58206 12480 ft 333 kts 202°
2026-05-06 18:59 51.83487 11.56383 11884 ft 328 kts 216°
2026-05-06 18:59 51.81722 11.54246 11618 ft 313 kts 219°
2026-05-06 18:59 51.80090 11.52071 11237 ft 298 kts 221°
2026-05-06 19:00 51.78540 11.49892 10745 ft 293 kts 222°
2026-05-06 19:00 51.77032 11.47723 10415 ft 285 kts 222°
2026-05-06 19:00 51.75571 11.45614 10087 ft 278 kts 222°
2026-05-06 19:00 51.74131 11.43547 9844 ft 274 kts 222°
2026-05-06 19:01 51.72713 11.41528 9798 ft 275 kts 221°
2026-05-06 19:01 51.71271 11.39487 9800 ft 275 kts 221°
2026-05-06 19:01 51.69826 11.37453 9802 ft 276 kts 221°
2026-05-06 19:01 51.68379 11.35422 9802 ft 276 kts 221°
2026-05-06 19:02 51.66923 11.33411 9796 ft 272 kts 218°
2026-05-06 19:02 51.65331 11.31825 9795 ft 268 kts 205°
2026-05-06 19:02 51.63572 11.30972 9797 ft 268 kts 189°
2026-05-06 19:02 51.61703 11.31038 9771 ft 271 kts 170°
2026-05-06 19:03 51.59978 11.32311 9381 ft 277 kts 144°
2026-05-06 19:03 51.58721 11.34613 9047 ft 275 kts 127°
2026-05-06 19:03 51.57708 11.37149 8825 ft 264 kts 124°
2026-05-06 19:03 51.56750 11.39621 8500 ft 257 kts 124°
2026-05-06 19:04 51.55814 11.42047 8108 ft 254 kts 124°
2026-05-06 19:04 51.54886 11.44455 7686 ft 252 kts 124°
2026-05-06 19:04 51.53964 11.46842 7221 ft 251 kts 124°
2026-05-06 19:04 51.53048 11.49209 6793 ft 249 kts 124°
2026-05-06 19:05 51.52142 11.51534 6393 ft 247 kts 124°
2026-05-06 19:05 51.51226 11.53871 5967 ft 246 kts 124°
2026-05-06 19:05 51.50313 11.56200 5526 ft 246 kts 124°
2026-05-06 19:05 51.49408 11.58513 5276 ft 242 kts 124°
2026-05-06 19:06 51.48511 11.60774 5046 ft 238 kts 124°
2026-05-06 19:06 51.47616 11.63014 5007 ft 239 kts 124°
2026-05-06 19:06 51.46714 11.65236 5006 ft 243 kts 124°
2026-05-06 19:06 51.45789 11.67523 5008 ft 245 kts 124°
2026-05-06 19:07 51.44876 11.69844 5003 ft 247 kts 121°
2026-05-06 19:07 51.44125 11.72334 4856 ft 248 kts 115°
2026-05-06 19:07 51.43444 11.74854 4575 ft 245 kts 114°
2026-05-06 19:07 51.42776 11.77344 4322 ft 241 kts 114°
2026-05-06 19:08 51.42117 11.79785 4113 ft 235 kts 115°
2026-05-06 19:08 51.41477 11.82146 3898 ft 231 kts 114°
2026-05-06 19:08 51.40837 11.84487 3700 ft 227 kts 114°
2026-05-06 19:08 51.40204 11.86791 3499 ft 223 kts 114°
2026-05-06 19:09 51.39746 11.89127 3313 ft 218 kts 97°
2026-05-06 19:09 51.39745 11.91479 3187 ft 211 kts 84°
2026-05-06 19:09 51.39901 11.93785 3055 ft 205 kts 85°
2026-05-06 19:09 51.40016 11.96013 2992 ft 196 kts 86°
2026-05-06 19:10 51.40117 11.98183 3003 ft 195 kts 86°
2026-05-06 19:10 51.40215 12.00330 2979 ft 188 kts 86°
2026-05-06 19:10 51.40311 12.02390 2762 ft 183 kts 86°
2026-05-06 19:10 51.40407 12.04415 2450 ft 181 kts 85°
2026-05-06 19:11 51.40499 12.06374 2190 ft 175 kts 86°
2026-05-06 19:11 51.40588 12.08268 1959 ft 164 kts 85°
2026-05-06 19:11 51.40670 12.10004 1756 ft 149 kts 85°
2026-05-06 19:11 51.40744 12.11582 1553 ft 135 kts 85°
2026-05-06 19:12 51.40812 12.13020 1374 ft 126 kts 85°
2026-05-06 19:12 51.40877 12.14424 1212 ft 127 kts 85°
2026-05-06 19:12 51.40944 12.15846 1024 ft 128 kts 84°
2026-05-06 19:12 51.41011 12.17275 870 ft 130 kts 83°
2026-05-06 19:13 51.41077 12.18736 726 ft 132 kts 83°
2026-05-06 19:13 51.41148 12.20180 530 ft 128 kts 83°
2026-05-06 19:13 51.41213 12.21566 461 ft 120 kts 84°
2026-05-06 19:13 51.41260 12.22661 470 ft 74 kts 88°
2026-05-06 19:14 51.41295 12.23208 473 ft 37 kts 86°
2026-05-06 19:14 51.41308 12.23603 478 ft 34 kts 89°
2026-05-06 19:14 51.41294 12.23946 477 ft 23 kts 99°
2026-05-06 19:14 51.41252 12.24140 476 ft 11 kts 114°
2026-05-06 19:15 51.41212 12.24255 476 ft 13 kts 123°
2026-05-06 19:15 51.41205 12.24274 474 ft 0 kts 115°
2026-05-06 19:15 51.41205 12.24275 474 ft 0 kts 114°
2026-05-06 19:16 51.41189 12.24325 472 ft 8 kts 125°
2026-05-06 19:16 51.41150 12.24377 473 ft 8 kts 152°
2026-05-06 19:16 51.41097 12.24369 472 ft 8 kts 221°
2026-05-06 19:16 51.41082 12.24286 477 ft 8 kts 263°
2026-05-06 19:17 51.41045 12.24218 473 ft 10 kts 186°
2026-05-06 19:17 51.40989 12.24246 467 ft 7 kts 122°
2026-05-06 19:17 51.40985 12.24311 474 ft 5 kts 88°
2026-05-06 19:17 51.40986 12.24325 472 ft 0 kts 87°